Volver al catálogo

SL-12 R/B(2)

ActivoGEO
NORAD 26939·ROCKET BODY·🇷🇺 Russia

Lanzado Oct 6, 2001 desde Baikonur Cosmodrome

Loading…

TLE

ActualizadoSource: Space-Track

Época: Aug 29, 2026, 21:58 UTC

1 26939U 01045D   26241.91528713  .00000105  00000-0  00000+0 0  9995
2 26939  13.9445  11.5149 0025288  31.2789 312.6322  1.00249947 91468

Sigue SL-12 R/B(2) en tiempo real con AllMySat

Download on the App Store